Terug naar catalogus

STARLINK-34562

ActiefCommunicatieVLEO
NORAD 64725·PAYLOAD·🇺🇸 United States

Gelanceerd Jul 2, 2025 vanaf Cape Canaveral Space Force Station

Loading…

Volgende Passages (komende 24 uur)

TLE

VersSource: CelesTrak SupGP

Epoch: Sep 15, 2026, 03:43 UTC

1 64725C 25144B   26258.15534722  .00055375  00000+0  16361-2 0  2583
2 64725  53.1603  20.4606 0001180  87.6256  51.0951 15.34361651    13

Volg STARLINK-34562 in realtime met AllMySat

Download on the App Store